Location: Ashtead
(51.3000°N, 0.3000°W)
Time: 05:29:18
(UTC+00:00)

Cosmos 1812 Rocket - Pass Details

Date: 26 September 2023
Orbit: 603 x 629 km, 82.5° (Epoch: 29 November)

Event Time Altitude Azimuth Distance (km) Brightness Sun altitude
Exits shadow 02:47:31 55° 53° (NE) 762 4.2 -27.8°
Drops below altitude 10° 02:51:17 10° 16° (NNE) 2,022 6.8 -27.4°
Sets 02:53:33 0° 13° (NNE) 2,933 7.8 -27.1°
